Adrian, MI

2:27 AM EDT on August 19, 2017 (GMT -0400)
Lenawee County

Weather History for KADG - September, 2013

Change the Weather History Date:

Sunday, September 22, 2013

  Actual Average Record
Temperature  
Mean Temperature 51 °F -  
Max Temperature 60 °F 69 °F 89 °F (1970)
Min Temperature 44 °F 46 °F 31 °F (1974)
Degree Days  
Heating Degree Days 14    
Growing Degree Days 1 (Base 50)    
Moisture  
Dew Point 42 °F    
Average Humidity 67    
Maximum Humidity 90    
Minimum Humidity 53    
Precipitation  
Precipitation 0.00 in - - ()
Sea Level Pressure  
Sea Level Pressure 30.02 in    
Wind  
Wind Speed 7 mph (North)    
Max Wind Speed 14 mph    
Max Gust Speed 18 mph    
Visibility 10 miles    
Events      
Averages and records for this station are not official NWS values.
T = Trace of Precipitation, MM = Missing Value Source: NWS Daily Summary

Daily Weather History Graph

Daily Weather History Graph

Search for Another Location

Airport or City:

Trip Planner

Search our weather history database for the weather conditions in past years. The results will help you decide how hot, cold, wet, or windy it might be!

Date:

Astronomy

Sep. 22, 2013 Rise Set
Actual Time 7:23 AM EDT 7:33 PM EDT
Civil Twilight 6:56 AM EDT 8:00 PM EDT
Nautical Twilight 6:23 AM EDT 8:33 PM EDT
Astronomical Twilight 5:50 AM EDT 9:06 PM EDT
Moon 9:18 PM EDT (9/22) 10:46 AM EDT (9/22)
Length of Visible Light 13h 04m
Length of Day
12h 09m
Waning Gibbous, 89% of the Moon is Illuminated
Sep 22
Waning Gibbous
Sep 26
Last Quarter
Oct 4
New
Oct 11
First Quarter
Oct 18
Full

Hourly Weather History & Observations

Time (EDT) Temp. Windchill Dew Point Humidity Pressure Visibility Wind Dir Wind Speed Gust Speed Precip Events Conditions
12:53 AM 54.0 °F - 46.9 °F 77% 29.91 in 10.0 mi North 4.6 mph - N/A   Overcast
1:53 AM 55.0 °F - 46.0 °F 72% 29.92 in 10.0 mi North 4.6 mph - N/A   Overcast
2:53 AM 54.0 °F - 44.1 °F 69% 29.94 in 10.0 mi North 10.4 mph - N/A   Overcast
3:53 AM 53.1 °F - 42.1 °F 66% 29.94 in 10.0 mi NNW 5.8 mph - N/A   Overcast
4:53 AM 52.0 °F - 41.0 °F 66% 29.95 in 10.0 mi North 6.9 mph - N/A   Overcast
5:53 AM 52.0 °F - 39.0 °F 61% 29.96 in 10.0 mi North 6.9 mph - N/A   Overcast
6:53 AM 51.1 °F - 39.9 °F 66% 29.98 in 10.0 mi North 3.5 mph - N/A   Overcast
7:53 AM 51.1 °F - 39.9 °F 66% 30.00 in 10.0 mi North 3.5 mph - N/A   Overcast
8:53 AM 52.0 °F - 43.0 °F 71% 30.02 in 10.0 mi NE 9.2 mph - N/A   Mostly Cloudy
9:53 AM 54.0 °F - 41.0 °F 62% 30.04 in 10.0 mi NNE 13.8 mph - N/A   Mostly Cloudy
10:53 AM 53.1 °F - 39.0 °F 59% 30.05 in 10.0 mi NNE 8.1 mph - N/A   Mostly Cloudy
11:53 AM 57.0 °F - 39.9 °F 53% 30.05 in 10.0 mi NNE 10.4 mph 18.4 mph N/A   Scattered Clouds
12:53 PM 57.0 °F - 41.0 °F 55% 30.05 in 10.0 mi NNE 10.4 mph - N/A   Partly Cloudy
1:53 PM 55.9 °F - 41.0 °F 57% 30.05 in 10.0 mi North 10.4 mph 16.1 mph N/A   Scattered Clouds
2:53 PM 57.0 °F - 41.0 °F 55% 30.04 in 10.0 mi NNW 6.9 mph - N/A   Scattered Clouds
3:53 PM 57.9 °F - 41.0 °F 53% 30.03 in 10.0 mi NNW 6.9 mph - N/A   Scattered Clouds
4:53 PM 57.9 °F - 42.1 °F 56% 30.04 in 10.0 mi NNW 3.5 mph - N/A   Mostly Cloudy
5:53 PM 57.9 °F - 42.1 °F 56% 30.04 in 10.0 mi NNW 5.8 mph - N/A   Scattered Clouds
6:53 PM 55.0 °F - 43.0 °F 64% 30.05 in 10.0 mi NNW 5.8 mph - N/A   Mostly Cloudy
7:53 PM 51.1 °F - 43.0 °F 74% 30.06 in 10.0 mi NNW 5.8 mph - N/A   Clear
8:53 PM 48.9 °F - 43.0 °F 80% 30.08 in 10.0 mi North 5.8 mph - N/A   Clear
9:53 PM 46.0 °F 43.9 °F 42.1 °F 86% 30.09 in 10.0 mi NE 4.6 mph - N/A   Clear
10:53 PM 45.0 °F 41.8 °F 42.1 °F 90% 30.10 in 10.0 mi NNE 5.8 mph - N/A   Clear
11:53 PM 44.1 °F 41.5 °F 41.0 °F 89% 30.10 in 10.0 mi NNE 4.6 mph - N/A   Clear